4XPAD LGSR-LGSR

Flight info

Callsign 4XPAD
Flight time 0h 10m
Altitude 4000
Route VFR FLIGHT LGSR ZONE
Aircraft C404/L-V/N

Departure

Time 2026-05-09 17:27
Airport Santorini International Airport (LGSR)

Arrival

Time 2026-05-09 17:38
Airport Santorini International Airport (LGSR)
Time Latitude Longitude Altitude Speed Heading
2026-05-09 17:18 36.40374 25.47365 108 ft 0 kts 249°
2026-05-09 17:25 36.40569 25.47445 113 ft 20 kts 341°
2026-05-09 17:25 36.40689 25.47385 118 ft 25 kts 339°
2026-05-09 17:25 36.40822 25.47347 123 ft 7 kts 55°
2026-05-09 17:25 36.40835 25.47380 122 ft 0 kts 70°
2026-05-09 17:26 36.40851 25.47427 119 ft 16 kts 73°
2026-05-09 17:26 36.40708 25.47546 114 ft 53 kts 158°
2026-05-09 17:26 36.40164 25.47801 124 ft 106 kts 164°
2026-05-09 17:27 36.39385 25.48121 354 ft 125 kts 160°
2026-05-09 17:27 36.38617 25.48539 837 ft 118 kts 153°
2026-05-09 17:27 36.37842 25.49085 859 ft 149 kts 150°
2026-05-09 17:27 36.36856 25.49808 687 ft 169 kts 153°
2026-05-09 17:28 36.35764 25.50263 746 ft 168 kts 172°
2026-05-09 17:28 36.34630 25.50104 863 ft 163 kts 203°
2026-05-09 17:28 36.33820 25.49180 939 ft 163 kts 243°
2026-05-09 17:28 36.33654 25.47777 889 ft 169 kts 279°
2026-05-09 17:29 36.34117 25.46455 974 ft 165 kts 297°
2026-05-09 17:29 36.34643 25.45263 1281 ft 150 kts 297°
2026-05-09 17:29 36.35114 25.44104 1387 ft 154 kts 295°
2026-05-09 17:29 36.35564 25.42844 1267 ft 166 kts 289°
2026-05-09 17:30 36.35965 25.41475 1180 ft 169 kts 285°
2026-05-09 17:30 36.36237 25.40068 1195 ft 165 kts 274°
2026-05-09 17:30 36.35893 25.38800 1261 ft 165 kts 229°
2026-05-09 17:30 36.34800 25.38305 1079 ft 181 kts 172°
2026-05-09 17:31 36.33956 25.39377 934 ft 187 kts 99°
2026-05-09 17:31 36.33905 25.40942 951 ft 178 kts 91°
2026-05-09 17:32 36.35100 25.46799 980 ft 177 kts 54°
2026-05-09 17:32 36.35867 25.47956 1099 ft 172 kts 49°
2026-05-09 17:32 36.36769 25.48981 945 ft 180 kts 30°
2026-05-09 17:33 36.38010 25.49409 375 ft 196 kts 355°
2026-05-09 17:33 36.39272 25.49050 404 ft 177 kts 341°
2026-05-09 17:33 36.40366 25.48545 673 ft 162 kts 345°
2026-05-09 17:33 36.41455 25.48174 678 ft 169 kts 339°
2026-05-09 17:34 36.42526 25.47453 454 ft 179 kts 326°
2026-05-09 17:35 36.40032 25.46213 1519 ft 169 kts 167°
2026-05-09 17:35 36.38854 25.46554 1390 ft 176 kts 173°
2026-05-09 17:36 36.37654 25.46796 1404 ft 169 kts 162°
2026-05-09 17:36 36.36649 25.47407 1344 ft 160 kts 173°
2026-05-09 17:36 36.35929 25.48271 1290 ft 166 kts 80°
2026-05-09 17:36 36.36718 25.49069 805 ft 148 kts
2026-05-09 17:37 36.37690 25.48994 435 ft 135 kts 333°
2026-05-09 17:37 36.38556 25.48560 269 ft 134 kts 336°
2026-05-09 17:37 36.39379 25.48159 87 ft 114 kts 337°
2026-05-09 17:37 36.39995 25.47878 94 ft 64 kts 341°
2026-05-09 17:38 36.40279 25.47746 103 ft 24 kts 336°
2026-05-09 17:38 36.40310 25.47660 103 ft 11 kts 251°
2026-05-09 17:38 36.40303 25.47572 103 ft 10 kts 314°
2026-05-09 17:39 36.40404 25.47520 107 ft 6 kts 333°
2026-05-09 17:39 36.40419 25.47457 108 ft 12 kts 245°
2026-05-09 17:39 36.40448 25.47387 110 ft 8 kts 318°
2026-05-09 17:39 36.40461 25.47339 111 ft 2 kts 266°
2026-05-09 17:40 36.40447 25.47319 109 ft 0 kts 220°